Tracking 21076 objects as of 10-Aug-2020
HD Live streaming from Space Station
objects crossing your sky now
Track the most recent launched group of Starlink satellites

TEMPSAT 2

Track TEMPSAT 2 now!
10-day predictions
TEMPSAT 2 is classified as:


NORAD ID: 4168
Int'l Code: 1969-082H
Perigee: 902.6 km
Apogee: 930.1 km
Inclination: 70.0 °
Period: 103.2 minutes
Semi major axis: 7287 km
RCS: 0.0673 m2 (small)
Launch date: September 30, 1969
Source: United States (US)
Launch site: AIR FORCE WESTERN TEST RANGE (AFWTR)
aabbcc
Your satellite tracking list
Your tracking list is empty




NASA's NSSDC Master Catalog

Two Line Element Set (TLE):
1  4168U 69082H   20222.77952024 -.00000023  00000-0  22169-4 0  9998
2  4168  70.0163 342.1030 0018868  24.8515 335.3495 13.95549082589917
Source of the keplerian elements: AFSPC